Regional Weather Roundup
Issued by NWS

Home | Current Version | Previous Version | Text Only | Print | Product List | Glossary Off
Versions: 1 2 3 4 5 6 7 8 9 10 11 12 13 14 15 16 17 18 19 20 21 22 23 24 25 26 27 28 29 30 31 32 33 34 35 36 37 38 39 40 41 42 43 44 45 46 47 48 49 50

650
ASUS43 KLSX 211407
RWRMO

WEATHER SUMMARY FOR MISSOURI
NATIONAL WEATHER SERVICE SPRINGFIELD MO
800 AM CST TUE FEB 21 2017

NOTE: "FAIR" INDICATES FEW OR NO CLOUDS BELOW 12,000 FEET WITH NO
       SIGNIFICANT WEATHER AND/OR OBSTRUCTIONS TO VISIBILITY.
       CURRENT SKY AND/OR WEATHER CONDITIONS ARE NOT AVAILABLE FOR
       CHILLICOTHE AND FARMINGTON.

MOZ001>031-035>038-043-044-053-054-211500-
...NORTHERN AND WESTERN MISSOURI...

CITY           SKY/WX    TMP DP  RH WIND       PRES   REMARKS
KANSAS CTY INT PTCLDY    44  42  93 N8        29.98R
KANSAS C DTWN  CLOUDY    50  44  80 N5        29.97R
LEE`S SUMMIT   MOSUNNY   49  46  90 NE5       29.96S
ST JOSEPH      CLEAR     37  37 100 N3        30.00R FOG
CHILLICOTHE      N/A     46  43  89 CALM      29.98R
KIRKSVILLE     PTSUNNY   48  44  86 NE5       29.96R

$$
MOZ066>068-077>081-088>096-101>105-211500-
...SOUTHWEST MISSOURI...

CITY           SKY/WX    TMP DP  RH WIND       PRES   REMARKS
SPRINGFIELD    PTSUNNY   56  54  93 N7        29.91R
JOPLIN         FOG       51  51 100 VRB5      29.94R VSB 1/4
BRANSON        CLOUDY    55  55 100 CALM      29.91F

$$
MOZ032>034-039>042-045>050-055>058-069>072-211500-
...CENTRAL MISSOURI...

CITY           SKY/WX    TMP DP  RH WIND       PRES   REMARKS
COLUMBIA       CLOUDY    55  55 100 N7        29.94R
JEFFERSON CITY CLOUDY    58  56  93 NW7       29.92R
ROLLA          LGT RAIN  57  57 100 N6        29.89R
SEDALIA        CLOUDY    55  53  93 N6        29.95R
WHITEMAN AFB   PTSUNNY   51  51 100 CALM      29.93R
WARRENSBURG    CLOUDY    50  46  87 CALM      29.95S
OSAGE BEACH    CLOUDY    57  55  93 CALM      29.92S

$$
MOZ051-052-059>065-211500-
...EAST CENTRAL MISSOURI...

CITY           SKY/WX    TMP DP  RH WIND       PRES   REMARKS
ST LOUIS INTL  LGT RAIN  61  58  90 E6        29.92S FOG
SPIRIT OF STL  LGT RAIN  59  59 100 E5        29.91F
ST CHARLES     LGT RAIN  58  58 100 CALM      29.92S FOG

$$
MOZ072>076-082>087-097>100-106>115-211500-
...SOUTH CENTRAL AND SOUTHEAST MISSOURI...

CITY           SKY/WX    TMP DP  RH WIND       PRES   REMARKS
CAPE GIRARDEAU CLOUDY    57  52  83 E7        29.91R
FARMINGTON     LGT RAIN  57  57 100 NE7       29.92S
POPLAR BLUFF   LGT RAIN  58  56  93 NE14      29.86S
WEST PLAINS    CLOUDY    57  56  96 NE10      29.87S

$$



USA.gov is the U.S. government's official web portal to all federal, state and local government web resources and services.